Location: Ammareddip?lem
(16.9681°N, 80.4999°E)
Time: 14:54:53
(UTC+00:00)

Envisat - Pass Details

Date: 20 October 2021
Orbit: 764 x 766 km, 98.2° (Epoch: 04 December)

Event Time Altitude Azimuth Distance (km) Brightness Sun altitude
Rises 23:36:14 0° 8° (N) 3,223 6.3 -14.1°
Reaches altitude 10° 23:38:33 10° 7° (N) 2,296 5.5 -13.5°
Maximum altitude 23:43:35 74° 283° (WNW) 794 2.9 -12.3°
Drops below altitude 10° 23:48:37 10° 198° (SSW) 2,291 5.4 -11.1°
Sets 23:50:55 0° 197° (SSW) 3,215 6.1 -10.6°
